This is the latest recevied weather packets stored in our database for station/object KS5S. If no packets are shown the sender has not sent any weather packets the latest 10 day(s).
| Time | Temp. | Humidity | Pressure | Rain* | Wind** | Luminosity | Snow |
|---|---|---|---|---|---|---|---|
| 1777859972 | 21.11° C | 54% | 1013.8 hPa | 0 mm | - | 0 W/m² | - |
| 1777859667 | 21.11° C | 54% | 1013.8 hPa | 0 mm | - | 0 W/m² | - |
| 1777859364 | 21.11° C | 53% | 1013.9 hPa | 0 mm | - | 0 W/m² | - |
| 1777859060 | 21.11° C | 52% | 1014 hPa | 0 mm | - | 0 W/m² | - |
| 1777858757 | 21.11° C | 52% | 1014 hPa | 0 mm | - | 0 W/m² | - |
| 1777858456 | 21.67° C | 51% | 1013.9 hPa | 0 mm | - | 0 W/m² | - |
| 1777858151 | 21.67° C | 50% | 1013.7 hPa | 0 mm | - | 0 W/m² | - |
| 1777857849 | 21.67° C | 49% | 1013.6 hPa | 0 mm | - | 1 W/m² | - |
| 1777857546 | 22.22° C | 48% | 1013.5 hPa | 0 mm | - | 2 W/m² | - |
| 1777857243 | 22.22° C | 47% | 1013.6 hPa | 0 mm | - | 3 W/m² | - |
| 1777856939 | 22.78° C | 47% | 1013.8 hPa | 0 mm | - | 6 W/m² | - |
| 1777856635 | 22.78° C | 46% | 1013.6 hPa | 0 mm | - | 9 W/m² | - |
| 1777856331 | 22.78° C | 45% | 1013.8 hPa | 0 mm | - | 13 W/m² | - |
| 1777856028 | 23.33° C | 44% | 1013.8 hPa | 0 mm | - | 18 W/m² | - |
| 1777855726 | 23.33° C | 43% | 1013.6 hPa | 0 mm | - | 22 W/m² | - |
| 1777855423 | 23.89° C | 43% | 1013.6 hPa | 0 mm | - | 26 W/m² | - |
| 1777855120 | 23.89° C | 43% | 1013.8 hPa | 0 mm | - | 32 W/m² | - |
| 1777854817 | 23.89° C | 42% | 1013.7 hPa | 0 mm | - | 37 W/m² | - |
| 1777854513 | 24.44° C | 40% | 1013.7 hPa | 0 mm | - | 58 W/m² | - |
| 1777854210 | 24.44° C | 41% | 1013.3 hPa | 0 mm | - | 67 W/m² | - |
| 1777853908 | 25° C | 39% | 1013.7 hPa | 0 mm | - | 64 W/m² | - |
| 1777853605 | 25° C | 39% | 1013.9 hPa | 0 mm | - | 101 W/m² | - |
| 1777853302 | 25° C | 38% | 1013.9 hPa | 0 mm | - | 108 W/m² | - |
| 1777852999 | 25.56° C | 38% | 1014 hPa | 0 mm | - | 118 W/m² | - |
| 1777852696 | 25.56° C | 39% | 1013.8 hPa | 0 mm | - | 128 W/m² | - |
* Rain latest hour (hover to see other rain measurements)
** Current wind speed in m/s (hover to see current wind gust speed)